Location: Unspecified
(0.0000°N, 0.0000°E)
Time: 21:16:28
(UTC+00:00)

Hubble Space Telescope - Pass Details

Date: 02 June 2023
Orbit: 525 x 528 km, 28.5° (Epoch: 04 June)

Event Time Altitude Azimuth Distance (km) Brightness Sun altitude
Rises 20:04:04 0° 288° (WNW) 2,636 5.5 -28.9°
Reaches altitude 10° 20:06:23 10° 281° (W) 1,749 4.2 -29.5°
Enters shadow 20:08:15 24° 266° (W) 1,112 2.9 -29.9°
